Find OneWeb SL0495

NORAD ID: 54115 Int'l Des: 2022-138 Owner: ONEWEBN Country: UK Constellation: oneweb operational
又名: ONEWEB-0495 spacetrack, celestrak
LEOCIRCULARPOLARONEWEB_TYPE

当前视图

正在加载3D地球...

About OneWeb SL0495

OneWeb SL0495 (NORAD 54115) is a oneweb constellation satellite launched Oct 22, 2022 by ONEWEBN of UK. It operates in LEO, CIRCULAR, POLAR, ONEWEB_TYPE orbit with a mass of 148.00 kg.

即将过境

Passes for default location (London). Set your location on the main map for personalized predictions.

高度历史

Loading altitude history...

两行轨道根数

1 54115U 22138C 26238.57154781 .00000027 00000-0 34059-4 0 9995
2 54115 87.9137 290.9538 0002666 89.6628 270.4810 13.19724557186100
Epoch: Aug 26, 2026 • Age: 9 hours

当前状态

高度 1212.2 km
远地点 / 近地点 N/A
速度 7.25 km/s
星下点 -64.15°S, 166.58°E
发射日期 Oct 22, 2022
运行时间 3.8 years
类型 internet

技术详情

分类 Payload
质量 148.00 kg
干质量 140.00 kg
总质量 148.00 kg
长度 1.30 m
直径 1.00 m
跨度 5.00 m
形状 Trapezoid+2 pan
制造商 ONEWUS
平台类型 ARROW
阶段状态 In Orbit
所有者/国家 ONEWEBN/UK

Most Searched